JQ1YUX-13 Tokyo Ota-ku JP current weather conditions

sailwx.info

Wind from 184

Air temperature 30.0° C
Dewpoint 27.6° C

Last reported at 2015-Jul-29 10:30 UTC.
Time now 2015-Jul-29 11:33 UTC

Location: N 35°35' E 139°40'.
View on Google Maps.

See reports from other nearby stations

  
Tides and Currents Weather Stations Pressure Air Temp Water Temp Dewpoint Dewpoint Depression Visibility Wind Speed Wind Dir Waves Ship Positions
date/time (UTC)wind fromknots sea level pressurealtimeterstation pressurevisibilityair tempwater tempwave heightnotes
2015-Jul-29 10:30 184 30.0
2015-Jul-29 10:00 218 1 gusting 1 30.0
2015-Jul-29 09:30 214 2 gusting 4 30.6
2015-Jul-29 09:16 215 30.6
2015-Jul-29 08:58 195 31.7
2015-Jul-29 08:46 190 31.7
2015-Jul-29 08:28 196 32.2
2015-Jul-29 08:16 278 0 32.8
2015-Jul-29 07:58 176 32.8
2015-Jul-29 07:46 194 33.3
2015-Jul-29 07:28 275 33.3
2015-Jul-29 07:16 180 33.3
2015-Jul-29 06:58 232 33.9
2015-Jul-29 06:46 043 34.4
2015-Jul-29 06:28 046 34.4
2015-Jul-29 06:16 333 33.9
2015-Jul-29 05:58 012 33.9
2015-Jul-29 05:46 028 33.3
2015-Jul-29 05:28 223 32.8
2015-Jul-29 05:16 246 32.8
2015-Jul-29 04:58 280 32.8
2015-Jul-29 04:46 318 32.8
2015-Jul-29 04:28 205 32.2
2015-Jul-29 04:16 300 32.8
2015-Jul-29 03:58 292 32.8
2015-Jul-29 03:46 313 33.3
2015-Jul-29 03:28 062 33.3
2015-Jul-29 03:16 199 33.3
2015-Jul-29 02:58 030 32.8
2015-Jul-29 02:46 198 32.8
2015-Jul-29 02:28 199 32.2
2015-Jul-29 02:16 198 31.7
2015-Jul-29 01:58 198 31.7
2015-Jul-29 01:46 198 31.7
2015-Jul-29 01:28 199 0 gusting 4 32.2
2015-Jul-29 01:16 238 32.2
2015-Jul-29 00:58 238 31.7
2015-Jul-29 00:46 237 31.7
2015-Jul-29 00:28 236 31.1
2015-Jul-29 00:16 236 31.1
2015-Jul-28 23:58 236 31.1
2015-Jul-28 23:46 236 31.1
2015-Jul-28 23:28 028 30.6
2015-Jul-28 23:16 028 30.6
2015-Jul-28 22:58 028 30.0
2015-Jul-28 22:46 024 30.0
2015-Jul-28 22:28 308 29.4
2015-Jul-28 22:16 030 28.9
2015-Jul-28 21:58 020 28.9
2015-Jul-28 21:46 355 28.9
2015-Jul-28 21:28 017 2 gusting 4 28.9
2015-Jul-28 21:16 036 28.9
2015-Jul-28 20:58 025 28.9
2015-Jul-28 20:46 025 28.9
2015-Jul-28 20:28 026 28.9
2015-Jul-28 20:16 025 28.9
2015-Jul-28 19:58 025 28.9
2015-Jul-28 19:46 025 28.9
2015-Jul-28 19:28 025 28.9
2015-Jul-28 19:16 024 29.4
2015-Jul-28 18:58 284 29.4
2015-Jul-28 18:46 284 28.9
2015-Jul-28 18:28 284 28.9
2015-Jul-28 18:16 284 28.9
2015-Jul-28 17:58 284 28.9
2015-Jul-28 17:46 284 28.9
2015-Jul-28 17:28 283 28.9
2015-Jul-28 17:16 284 28.9
2015-Jul-28 16:58 284 28.9
2015-Jul-28 16:46 284 28.9
2015-Jul-28 16:28 284 28.9
2015-Jul-28 16:16 284 28.9
2015-Jul-28 15:58 284 28.9
2015-Jul-28 15:46 284 28.9
2015-Jul-28 15:28 284 28.9
2015-Jul-28 15:16 284 28.9
2015-Jul-28 14:58 284 28.9
2015-Jul-28 14:46 284 28.9
2015-Jul-28 14:28 284 28.9
2015-Jul-28 14:16 284 29.4
2015-Jul-28 13:58 284 29.4
2015-Jul-28 13:46 284 29.4
2015-Jul-28 13:28 284 29.4
2015-Jul-28 13:16 284 29.4
2015-Jul-28 12:58 284 29.4
2015-Jul-28 12:46 285 30.0
2015-Jul-28 12:28 160 30.6
2015-Jul-28 12:16 160 30.6
2015-Jul-28 11:58 160 30.6
2015-Jul-28 11:46 160 31.1
2015-Jul-28 11:28 160 31.1
2015-Jul-28 11:16 160 31.7
2015-Jul-28 10:58 160 31.7
2015-Jul-28 10:46 160 31.1
2015-Jul-28 10:28 160 31.1
2015-Jul-28 10:16 160 31.7
2015-Jul-28 09:58 183 31.7
2015-Jul-28 09:46 184 31.7
2015-Jul-28 09:28 184 32.2
2015-Jul-28 09:16 184 32.2
2015-Jul-28 08:58 300 32.8
2015-Jul-28 08:46 301 32.8
2015-Jul-28 08:28 298 34.4
2015-Jul-28 08:16 298 34.4
2015-Jul-28 07:58 246 33.9
2015-Jul-28 07:46 173 0 gusting 0 33.9
2015-Jul-28 07:28 248 34.4
2015-Jul-28 07:16 179 35.0
2015-Jul-28 06:58 185 35.0
2015-Jul-28 06:46 326 35.0
2015-Jul-28 06:28 046 35.6
2015-Jul-28 06:16 178 34.4
2015-Jul-28 05:58 340 35.0
2015-Jul-28 05:46 042 35.0
2015-Jul-28 05:28 022 35.0
2015-Jul-28 05:16 009 34.4
2015-Jul-28 04:58 035 34.4
2015-Jul-28 04:46 028 35.0
2015-Jul-28 04:28 028 34.4
2015-Jul-28 04:16 019 34.4
2015-Jul-28 03:58 035 33.3
2015-Jul-28 03:46 079 33.9
2015-Jul-28 03:28 024 1 gusting 5 33.3
2015-Jul-28 03:16 336 32.8
2015-Jul-28 02:58 036 2 gusting 7 31.7
2015-Jul-28 02:46 022 1 gusting 6 32.2
2015-Jul-28 02:28 063 31.7
2015-Jul-28 02:16 342 1 gusting 4 31.7
2015-Jul-28 01:58 025 31.1
2015-Jul-28 01:46 30.6
2015-Jul-28 01:28 005 0 gusting 6 30.0
2015-Jul-28 01:16 350 30.0
2015-Jul-28 00:58 345 4 gusting 4 30.6
2015-Jul-28 00:46 032 2 gusting 6 30.6
2015-Jul-28 00:28 188 30.0
2015-Jul-28 00:16 188 29.4
2015-Jul-27 23:58 188 29.4
2015-Jul-27 23:46 188 29.4
2015-Jul-27 23:28 188 29.4
2015-Jul-27 23:16 188 29.4
2015-Jul-27 22:58 188 28.9
2015-Jul-27 22:46 188 28.9
2015-Jul-27 22:28 188 28.9
2015-Jul-27 22:16 188 28.9
2015-Jul-27 21:58 188 28.3
2015-Jul-27 21:46 188 28.3
2015-Jul-27 21:28 188 28.3
2015-Jul-27 21:16 188 28.3
2015-Jul-27 20:58 189 27.8
2015-Jul-27 20:46 188 27.8
2015-Jul-27 20:28 188 27.8
2015-Jul-27 20:16 188 27.8
2015-Jul-27 19:58 188 27.8
2015-Jul-27 19:46 188 27.8
2015-Jul-27 19:28 188 27.8
2015-Jul-27 19:16 188 27.8
2015-Jul-27 18:58 188 27.8
2015-Jul-27 18:46 188 27.8
2015-Jul-27 18:28 188 27.8
2015-Jul-27 18:16 188 28.3
2015-Jul-27 17:58 188 28.3
2015-Jul-27 17:46 188 28.3
2015-Jul-27 17:28 188 28.3
2015-Jul-27 17:16 188 28.3
2015-Jul-27 16:58 188 28.3
2015-Jul-27 16:46 188 28.3
2015-Jul-27 16:28 188 28.3
2015-Jul-27 16:16 188 28.3
2015-Jul-27 15:58 188 28.9
2015-Jul-27 15:46 188 28.9
2015-Jul-27 15:28 188 28.9
2015-Jul-27 15:16 188 28.9
2015-Jul-27 14:58 188 29.4
2015-Jul-27 14:46 188 29.4
2015-Jul-27 14:28 189 29.4
2015-Jul-27 14:16 188 29.4
2015-Jul-27 13:58 190 29.4
2015-Jul-27 13:46 189 29.4
2015-Jul-27 13:28 207 29.4
2015-Jul-27 13:16 207 29.4
2015-Jul-27 12:58 169 29.4
2015-Jul-27 12:46 169 30.0
2015-Jul-27 12:28 169 30.0
2015-Jul-27 12:16 169 30.0
2015-Jul-27 11:58 172 30.0
2015-Jul-27 11:46 168 30.0
2015-Jul-27 11:28 170 30.0
2015-Jul-27 11:16 182 30.0